N869KN TGPY-TGPZ

Flight info

Callsign N869KN
Flight time N/A
Altitude 5000
Route RABOT DCT OTPUR DCT BIBAR DCT DUSAL
Aircraft C182/L-SDGRY/S

Departure

Time 2026-05-04 17:31
Airport Maurice Bishop International Airport (TGPY)

Arrival

Time N/A
Airport Lauriston Airport (TGPZ)
Time Latitude Longitude Altitude Speed Heading
2026-05-04 17:31 12.00392 -61.73396 1299 ft 116 kts 92°
2026-05-04 17:31 12.00374 -61.70960 1759 ft 114 kts 91°
2026-05-04 17:32 12.00361 -61.69331 1998 ft 115 kts 91°
2026-05-04 17:33 12.00572 -61.66953 2386 ft 119 kts 62°
2026-05-04 17:33 12.01146 -61.66337 2503 ft 120 kts 50°
2026-05-04 17:34 12.02901 -61.64534 2871 ft 119 kts 51°
2026-05-04 17:34 12.03480 -61.63936 2983 ft 118 kts 53°
2026-05-04 17:35 12.05206 -61.62151 3359 ft 118 kts 53°
2026-05-04 17:35 12.06352 -61.60964 3596 ft 116 kts 52°
2026-05-04 17:35 12.06917 -61.60381 3711 ft 115 kts 52°
2026-05-04 17:36 12.07477 -61.59801 3817 ft 115 kts 51°
2026-05-04 17:36 12.08035 -61.59224 3927 ft 112 kts 52°
2026-05-04 17:36 12.08572 -61.58670 4060 ft 112 kts 54°
2026-05-04 17:36 12.09127 -61.58095 4185 ft 111 kts 51°
2026-05-04 17:37 12.09658 -61.57546 4299 ft 110 kts 51°
2026-05-04 17:37 12.10222 -61.57011 4428 ft 113 kts 41°
2026-05-04 17:37 12.11010 -61.56821 4549 ft 123 kts
2026-05-04 17:37 12.11866 -61.56823 4672 ft 122 kts
2026-05-04 17:38 12.12715 -61.56818 4800 ft 122 kts
2026-05-04 17:38 12.13566 -61.56809 4923 ft 122 kts
2026-05-04 17:38 12.14426 -61.56797 4981 ft 128 kts
2026-05-04 17:38 12.15337 -61.56781 4988 ft 134 kts
2026-05-04 17:39 12.17250 -61.56754 4998 ft 140 kts
2026-05-04 17:39 12.18221 -61.56742 5005 ft 141 kts
2026-05-04 17:39 12.19218 -61.56730 5006 ft 143 kts
2026-05-04 17:40 12.20199 -61.56718 5009 ft 143 kts